Theta_e
280 282 282 284 286 286 286 286 285 283 284 287 284 285 285 285 286 286 286 291 295 298 302 308 308 307 308 308 308 307 307 308 309 309 308 308 307 307
278 278 279 281 282 284 284 285 284 283 282 285 287 286 286 286 286 286 286 290 292 295 299 303 306 306 306 306 306 305 306 307 308 308 307 307 307 306
277 277 278 279 279 280 281 283 282 281 280 282 285 286 286 286 287 285 285 286 287 292 295 298 302 304 305 305 304 304 304 305 306 307 306 306 305 306
276 276 276 279 278 278 279 279 280 281 281 279 282 283 284 286 286 285 285 285 285 289 293 295 298 300 302 303 303 302 302 303 304 306 305 305 305 305
276 276 276 277 277 277 277 278 278 280 280 280 279 282 282 284 284 284 284 285 285 288 292 293 294 298 300 301 301 300 300 300 301 302 303 304 304 303
277 277 277 276 276 276 277 277 278 278 278 278 279 279 280 282 281 282 282 283 284 285 287 289 291 293 297 299 299 298 298 299 300 300 300 301 302 302
275 276 276 277 279 279 278 277 277 276 277 278 278 279 279 279 279 281 281 283 284 284 285 284 285 287 288 295 295 296 297 298 299 299 299 299 299 300
271 272 273 273 275 278 279 280 280 277 276 276 277 277 278 280 281 281 281 281 279 283 283 283 283 283 285 288 293 296 297 297 297 298 298 298 298 298
270 271 271 272 272 272 274 276 277 278 278 276 274 275 276 278 280 280 281 281 281 283 281 281 282 281 283 286 291 294 296 296 297 297 297 297 297 297
270 270 270 270 271 272 272 272 273 274 274 275 275 275 276 277 278 279 279 280 283 283 281 279 282 282 282 283 289 291 294 295 296 296 296 297 296 296
269 270 270 270 272 274 272 271 272 273 276 277 278 279 281 282 281 279 277 278 278 280 282 280 282 281 281 282 283 289 292 294 295 295 296 296 296 295
269 270 272 272 274 275 273 271 269 270 271 271 272 274 276 275 278 277 277 275 276 278 282 278 280 276 275 280 282 283 286 291 293 294 295 295 295 293
269 270 271 274 275 276 276 273 272 274 273 273 273 273 273 273 274 275 277 277 276 277 283 281 281 279 279 275 277 281 282 284 287 289 294 295 295 294
270 271 271 274 276 277 277 278 279 279 274 271 270 269 270 270 272 273 275 276 277 279 281 284 281 280 278 277 276 277 280 281 284 285 287 291 294 294
272 274 276 277 277 276 276 277 275 273 271 270 269 270 271 272 272 272 273 273 273 276 280 282 283 282 280 278 278 274 275 278 281 283 285 286 288 291
273 273 272 272 272 272 271 272 271 271 271 270 269 271 271 271 270 271 270 270 270 272 276 282 283 283 281 280 280 271 277 275 279 281 283 285 287 289
270 265 262 262 263 264 265 266 267 268 268 268 268 268 268 269 269 270 270 269 268 269 270 280 283 284 283 282 280 280 277 277 278 279 281 281 284 286
261 257 258 259 260 261 261 262 264 264 265 266 267 269 268 268 268 269 270 270 268 269 271 278 280 281 281 282 284 280 278 277 278 279 281 280 280 284
254 256 257 258 259 260 260 261 261 263 265 266 266 267 269 269 269 269 270 271 271 272 274 279 279 279 276 274 270 284 280 279 278 278 280 280 279 281
250 255 256 257 258 259 259 260 261 263 264 265 266 268 269 268 268 269 269 270 274 277 278 278 278 278 276 275 272 269 283 278 277 276 278 280 281 284
256 257 258 258 259 260 260 260 261 262 263 264 266 268 269 268 268 269 270 271 274 276 275 274 276 279 280 276 273 267 269 282 280 277 278 277 275 274
256 257 258 259 259 260 261 261 261 262 263 264 265 266 269 269 268 269 270 271 273 275 276 275 274 276 276 275 273 265 269 276 281 281 281 279 273 270
256 257 258 259 259 260 261 261 262 263 263 264 265 265 267 267 271 271 273 274 274 274 275 272 273 275 274 274 271 268 270 273 273 271 272 278 276 276
Wind_Speed
5 4 5 5 4 3 4 4 4 7 9 3 3 3 4 4 7 5 6 13 20 22 21 20 20 23 22 22 22 22 22 22 21 19 18 17 16 16
4 5 5 4 6 4 4 5 4 7 9 0 5 4 5 5 7 7 8 15 17 21 22 23 23 25 24 24 24 23 23 24 23 21 20 20 19 18
6 6 9 6 6 4 4 5 6 5 9 9 6 4 6 7 8 6 7 7 7 18 22 24 25 25 25 25 25 24 24 24 24 23 22 22 21 21
10 8 9 7 9 6 5 8 8 7 8 13 11 8 7 7 8 8 7 5 7 14 21 23 25 26 26 26 25 24 23 22 22 22 23 23 23 22
10 10 11 10 10 8 8 9 8 8 8 9 11 9 8 4 7 7 7 9 6 15 22 23 24 25 27 27 27 26 25 23 23 22 22 22 23 24
13 12 12 12 12 10 10 11 10 9 10 10 10 9 8 6 4 7 9 4 8 7 13 16 18 21 27 28 28 26 25 24 25 25 23 22 23 22
14 14 13 15 23 21 13 12 12 11 10 11 12 11 9 7 8 4 7 6 8 6 8 7 8 10 12 22 22 24 26 26 27 26 24 24 23 23
15 14 14 16 19 25 26 27 22 14 13 10 11 14 15 10 9 9 10 9 10 5 6 11 7 10 9 10 20 27 28 29 29 28 27 26 25 24
14 14 14 12 15 15 20 26 24 25 26 18 17 16 19 16 14 13 12 12 13 7 5 9 5 10 7 10 23 26 28 29 30 30 29 29 27 26
13 14 15 15 14 17 16 16 15 14 14 12 15 16 16 15 16 15 16 18 15 12 6 14 6 10 6 8 23 27 27 29 30 31 30 30 29 28
13 14 14 15 21 26 18 15 13 12 15 25 28 30 29 28 26 14 13 13 16 14 8 11 10 7 6 9 10 26 27 28 30 30 31 31 30 29
12 14 20 21 26 26 17 14 14 14 14 14 14 18 21 19 28 18 12 14 16 14 10 10 10 3 4 6 10 10 12 26 28 30 30 31 30 15
10 9 10 25 28 27 27 15 16 18 19 16 13 11 10 11 10 11 15 15 15 18 13 10 11 8 9 5 2 7 9 9 12 17 28 30 31 26
12 11 12 27 30 31 26 28 31 26 10 9 10 11 11 11 12 13 16 17 16 20 18 18 11 11 10 8 7 3 6 7 8 10 11 18 30 33
11 20 32 31 31 24 26 29 25 12 11 11 12 13 12 13 15 15 15 18 21 21 20 22 16 13 11 11 9 4 5 6 8 10 10 11 12 13
19 10 18 23 24 21 14 13 9 10 10 12 13 13 12 12 12 11 13 12 13 16 21 24 21 18 13 13 10 5 7 7 9 9 10 10 11 12
18 9 9 9 9 9 9 9 10 10 10 11 12 13 12 12 12 12 12 13 14 15 14 14 18 20 15 15 11 11 9 7 8 10 10 11 9 11
8 7 9 8 9 10 10 11 10 12 10 11 12 12 12 12 12 12 13 14 15 15 13 15 11 12 9 12 18 11 9 9 7 9 10 11 11 11
4 7 8 8 9 10 10 10 12 11 13 11 12 13 12 11 13 13 14 15 11 12 14 14 10 12 11 10 3 19 10 7 9 9 10 10 9 10
2 6 8 9 9 10 10 11 11 11 11 12 13 13 11 10 11 11 12 13 12 10 8 7 10 9 10 10 6 4 19 8 9 10 10 8 5 7
8 8 8 9 10 10 10 11 12 12 12 12 12 13 9 8 10 10 11 15 15 8 7 3 8 15 8 4 3 1 2 20 14 10 9 9 6 4
7 8 9 9 10 10 10 11 11 11 11 11 12 11 12 8 10 11 10 11 9 9 10 3 5 5 4 6 5 3 2 4 10 12 11 11 5 6
8 9 10 10 9 10 10 11 11 11 11 11 11 11 11 11 9 10 11 10 10 9 1 2 3 2 3 3 4 3 4 4 3 7 8 6 6 6
Wind_Direction
318 316 303 301 292 283 285 278 267 295 293 293 287 288 285 282 266 250 240 245 250 254 246 240 226 234 238 237 240 241 242 241 235 231 235 234 229 227
310 299 288 288 300 285 273 271 253 261 279 18 268 256 263 276 271 254 244 246 251 252 250 241 237 236 236 237 238 238 238 238 236 230 228 227 225 225
309 303 302 290 293 287 285 273 268 244 267 287 279 280 272 269 271 255 252 249 252 248 246 246 243 237 233 232 234 235 235 236 236 230 228 229 226 221
303 296 295 299 296 284 277 281 273 268 270 277 284 281 253 264 266 272 265 238 242 248 250 248 245 243 237 231 229 229 230 231 234 231 227 227 226 225
296 292 292 291 288 287 281 284 280 278 274 272 277 282 280 250 270 265 260 262 236 244 253 252 249 244 241 234 228 225 223 224 227 229 225 226 225 225
299 293 292 288 287 287 280 278 279 281 280 277 277 279 277 277 235 267 270 237 265 243 243 244 242 242 241 239 232 226 222 220 222 225 222 222 220 223
303 302 299 295 292 292 289 285 283 279 276 281 284 283 275 276 266 252 255 262 253 241 255 243 235 237 239 240 241 229 223 222 219 223 222 218 217 216
303 303 300 292 290 293 291 288 282 281 279 282 283 278 281 275 271 272 272 275 281 192 233 256 221 239 234 228 227 228 223 220 220 220 222 219 216 213
303 304 303 299 302 296 295 292 292 291 284 285 281 274 281 280 283 279 270 263 266 259 214 257 205 242 232 236 232 231 230 224 221 221 219 219 217 214
297 298 297 298 293 292 287 281 278 275 272 267 267 274 273 280 277 277 277 279 274 262 210 260 218 238 221 224 232 232 231 228 224 221 220 220 217 214
292 289 283 286 288 290 286 285 285 285 285 285 285 285 289 292 285 272 266 266 258 257 226 246 245 246 207 231 222 232 231 229 227 224 224 218 216 215
284 281 279 286 291 292 288 285 282 278 274 271 271 272 273 269 271 282 278 265 269 265 239 225 241 165 266 211 213 212 220 229 228 227 221 221 215 209
286 286 279 285 290 288 283 275 269 271 267 270 270 268 272 274 272 260 267 266 262 263 256 228 233 216 225 242 240 207 212 221 221 228 229 221 216 209
292 286 278 278 279 278 277 274 275 282 291 287 278 274 274 270 266 263 264 264 271 268 250 255 241 215 217 227 228 174 196 207 206 214 215 225 222 215
290 287 298 304 302 300 294 290 289 278 270 264 265 268 265 267 270 270 267 266 271 262 267 239 244 229 214 223 227 175 141 207 204 209 205 209 217 211
293 315 321 319 310 303 309 305 295 287 279 274 274 274 276 274 270 266 268 269 269 269 275 231 232 236 229 225 221 207 183 186 194 208 212 212 216 217
333 330 329 319 317 314 311 305 304 299 287 277 273 273 271 269 266 263 263 262 259 264 264 242 223 229 229 221 224 223 206 203 187 194 202 216 215 212
355 328 320 318 316 315 313 309 304 298 291 289 286 274 263 262 267 269 264 256 251 252 249 246 209 214 218 222 222 224 214 208 194 191 197 210 216 211
332 316 312 313 313 310 307 304 302 300 295 286 279 276 271 267 269 272 273 293 244 236 241 238 202 203 212 219 248 219 220 195 191 196 201 208 218 211
267 302 308 309 308 305 305 304 303 303 301 301 296 288 268 261 268 272 278 288 281 268 255 191 189 195 205 215 201 227 208 186 188 197 204 210 225 207
316 312 307 307 306 304 303 301 300 302 303 302 302 306 278 258 262 264 274 282 296 285 257 207 206 200 200 96 147 290 282 209 194 196 197 202 188 159
306 309 310 308 306 308 307 307 305 310 312 309 310 308 313 267 261 265 261 267 275 288 271 233 145 154 170 191 192 153 146 191 202 205 199 176 159 192
311 310 309 307 308 310 311 311 309 308 313 311 313 313 313 312 301 267 263 264 266 265 305 79 134 157 193 187 127 122 137 134 97 93 49 79 81 86